Find Local Weather

World > North America > United States > Arizona

Prescott Valley, Arizona Regional Weather

Lat: 34.61N, Lon: 112.32W
Wx Zone: AZZ008
Feedback
Expires:201812092000;;543864
ASUS45 KPSR 091910
RWRAZ 

ARIZONA HOURLY REGIONAL WEATHER ROUNDUP
NATIONAL WEATHER SERVICE PHOENIX AZ
1200 PM MST SUN DEC 09 2018

NOTE: FAIR INDICATES FEW OR NO CLOUDS BELOW 12,000 FEET WITH NO
SIGNIFICANT WEATHER AND/OR OBSTRUCTIONS TO VISIBILITY.


AZZ004>008-015-016-018-092000-
NORTH CENTRAL ARIZONA
  
CITY           SKY/WX    TMP DP  RH WIND       PRES   REMARKS
GRAND CANYON   SUNNY     48  17  29 E9        30.43F                  
WILLIAMS       SUNNY     52  10  19 N7        30.38                   
PRESCOTT       SUNNY     49  31  49 N5        30.39F                  
FLAGSTAFF      SUNNY     41  28  60 E12       30.42F                  
PAYSON         SUNNY     52  27  37 CALM      30.37                   
PAGE           SUNNY     44  33  65 NE3       30.45F                  
$$


SKY/WX - Weather  TMP - Temperature  DP - Dew Point  RH - Relative Humidity
WIND - Wind Direction/Speed PRES - Barometric Pressure